• In Deutschland
  • Länderverzeichnis
  • Für 7 Tage
  • Wassertemperatur
  • Satellitenkarten
  • Wetterkarte
  • Widgets
  • user-avatar
    Anmelden

    Stündliche Wetter Gorodno

    Heute, 22 Oktober, Montag

    Zeit Temperatur Niederschläge Wind Luftdruck Luftfeuchtigkeit
    00:00 +3°C° 0 mm 3 m/S 750 mmHg 90%
    01:00 +3°C° 0 mm 4 m/S 750 mmHg 89%
    02:00 +3°C° 0 mm 4 m/S 749 mmHg 89%
    03:00 +3°C° 0 mm 4 m/S 749 mmHg 89%
    04:00 +2°C° 0 mm 5 m/S 748 mmHg 89%
    05:00 +2°C° 0 mm 5 m/S 747 mmHg 88%
    06:00 +3°C° 0 mm 5 m/S 747 mmHg 88%
    07:00 +3°C° 0 mm 5 m/S 747 mmHg 87%
    08:00 +5°C° 0 mm 5 m/S 746 mmHg 86%
    09:00 +5°C° 0.1 mm 5 m/S 746 mmHg 85%
    10:00 +4°C° 0.1 mm 6 m/S 745 mmHg 84%
    11:00 +5°C° 0.1 mm 6 m/S 744 mmHg 82%
    12:00 +5°C° 0.3 mm 6 m/S 744 mmHg 82%
    13:00 +6°C° 0.3 mm 5 m/S 743 mmHg 83%
    14:00 +6°C° 0.3 mm 5 m/S 742 mmHg 83%
    15:00 +6°C° 0.8 mm 5 m/S 742 mmHg 84%
    16:00 +6°C° 0.8 mm 5 m/S 742 mmHg 86%
    17:00 +6°C° 0.8 mm 5 m/S 741 mmHg 87%
    18:00 +6°C° 0.4 mm 5 m/S 741 mmHg 88%
    19:00 +6°C° 0.4 mm 4 m/S 741 mmHg 88%
    20:00 +6°C° 0.4 mm 4 m/S 741 mmHg 89%
    21:00 +6°C° 0.1 mm 4 m/S 740 mmHg 88%
    22:00 +5°C° 0.1 mm 4 m/S 740 mmHg 86%
    23:00 +5°C° 0.1 mm 3 m/S 740 mmHg 85%

    Morgen, 23 Oktober, Dienstag

    Zeit Temperatur Niederschläge Wind Luftdruck Luftfeuchtigkeit
    00:00 +4°C° 0 mm 3 m/S 740 mmHg 86%
    01:00 +3°C° 0 mm 3 m/S 740 mmHg 86%
    02:00 +3°C° 0 mm 3 m/S 740 mmHg 86%
    03:00 +2°C° 0 mm 3 m/S 740 mmHg 87%
    04:00 +2°C° 0 mm 3 m/S 740 mmHg 88%
    05:00 +1°C° 0 mm 3 m/S 739 mmHg 88%
    06:00 +1°C° 0 mm 3 m/S 739 mmHg 88%
    07:00 +1°C° 0 mm 3 m/S 739 mmHg 88%
    08:00 +1°C° 0 mm 3 m/S 739 mmHg 88%
    09:00 +3°C° 0 mm 3 m/S 738 mmHg 84%
    10:00 +4°C° 0 mm 3 m/S 738 mmHg 80%
    11:00 +5°C° 0 mm 3 m/S 737 mmHg 76%
    12:00 +5°C° 0 mm 3 m/S 736 mmHg 73%
    13:00 +7°C° 0 mm 3 m/S 735 mmHg 70%
    14:00 +7°C° 0 mm 3 m/S 734 mmHg 68%
    15:00 +5°C° 0 mm 3 m/S 733 mmHg 71%
    16:00 +4°C° 0 mm 3 m/S 732 mmHg 75%
    17:00 +3°C° 0 mm 3 m/S 731 mmHg 79%
    18:00 +3°C° 0 mm 4 m/S 730 mmHg 80%
    19:00 +3°C° 0 mm 4 m/S 729 mmHg 80%
    20:00 +3°C° 0 mm 4 m/S 728 mmHg 81%
    21:00 +3°C° 0 mm 4 m/S 727 mmHg 81%
    22:00 +2°C° 0 mm 5 m/S 726 mmHg 82%
    23:00 +2°C° 0 mm 5 m/S 724 mmHg 82%

    übermorgen, 24 Oktober, Mittwoch

    Zeit Temperatur Niederschläge Wind Luftdruck Luftfeuchtigkeit
    00:00 +2°C° 0.3 mm 5 m/S 724 mmHg 82%
    01:00 +2°C° 0.3 mm 5 m/S 723 mmHg 83%
    02:00 +2°C° 0.3 mm 5 m/S 722 mmHg 83%
    03:00 +1°C° 0.6 mm 5 m/S 721 mmHg 83%
    04:00 +1°C° 0.6 mm 5 m/S 721 mmHg 83%
    05:00 +1°C° 0.6 mm 5 m/S 721 mmHg 83%
    06:00 +1°C° 0.4 mm 4 m/S 721 mmHg 84%
    07:00 +1°C° 0.4 mm 4 m/S 721 mmHg 84%
    08:00 +1°C° 0.4 mm 4 m/S 721 mmHg 84%
    09:00 +3°C° 0.2 mm 4 m/S 721 mmHg 82%
    10:00 +3°C° 0.2 mm 4 m/S 722 mmHg 81%
    11:00 +3°C° 0.2 mm 4 m/S 722 mmHg 80%
    12:00 +3°C° 0.3 mm 4 m/S 723 mmHg 80%
    13:00 +3°C° 0.3 mm 4 m/S 724 mmHg 79%
    14:00 +3°C° 0.3 mm 4 m/S 724 mmHg 79%
    15:00 +3°C° 0.3 mm 4 m/S 725 mmHg 80%
    16:00 +3°C° 0.3 mm 3 m/S 726 mmHg 81%
    17:00 +3°C° 0.3 mm 3 m/S 727 mmHg 81%
    18:00 +3°C° 0.1 mm 3 m/S 727 mmHg 82%
    19:00 +2°C° 0.1 mm 3 m/S 728 mmHg 83%
    20:00 +2°C° 0.1 mm 3 m/S 729 mmHg 84%
    21:00 +1°C° 0 mm 3 m/S 729 mmHg 87%
    22:00 +2°C° 0 mm 2 m/S 730 mmHg 90%
    23:00 +1°C° 0 mm 2 m/S 730 mmHg 93%

    25 Oktober, Donnerstag

    Zeit Temperatur Niederschläge Wind Luftdruck Luftfeuchtigkeit
    00:00 +1°C° 0 mm 2 m/S 730 mmHg 94%
    01:00 -1°C° 0 mm 2 m/S 731 mmHg 94%
    02:00 -1°C° 0 mm 2 m/S 731 mmHg 95%
    03:00 -1°C° 0 mm 2 m/S 731 mmHg 95%
    04:00 -1°C° 0 mm 2 m/S 731 mmHg 95%
    05:00 +1°C° 0 mm 1 m/S 731 mmHg 95%
    06:00 +1°C° 0 mm 1 m/S 731 mmHg 94%
    07:00 +1°C° 0 mm 1 m/S 731 mmHg 93%
    08:00 +1°C° 0 mm 1 m/S 731 mmHg 92%
    09:00 +2°C° 0 mm 2 m/S 731 mmHg 88%
    10:00 +3°C° 0 mm 2 m/S 731 mmHg 84%
    11:00 +4°C° 0 mm 2 m/S 731 mmHg 80%
    12:00 +5°C° 0 mm 2 m/S 731 mmHg 79%
    13:00 +5°C° 0 mm 2 m/S 731 mmHg 78%
    14:00 +4°C° 0 mm 3 m/S 730 mmHg 77%
    15:00 +4°C° 0 mm 2 m/S 730 mmHg 81%
    16:00 +4°C° 0 mm 2 m/S 730 mmHg 85%
    17:00 +3°C° 0 mm 2 m/S 730 mmHg 89%
    18:00 +2°C° 0 mm 2 m/S 730 mmHg 90%
    19:00 +2°C° 0 mm 2 m/S 730 mmHg 91%
    20:00 +2°C° 0 mm 2 m/S 730 mmHg 93%
    21:00 +1°C° 0 mm 2 m/S 730 mmHg 94%
    22:00 +1°C° 0 mm 2 m/S 730 mmHg 94%
    23:00 +1°C° 0 mm 2 m/S 730 mmHg 95%

    26 Oktober, Freitag

    Zeit Temperatur Niederschläge Wind Luftdruck Luftfeuchtigkeit
    00:00 +1°C° 0 mm 2 m/S 730 mmHg 95%
    01:00 +1°C° 0 mm 2 m/S 730 mmHg 95%
    02:00 -1°C° 0 mm 2 m/S 730 mmHg 95%
    03:00 -1°C° 0 mm 3 m/S 730 mmHg 95%
    04:00 -1°C° 0 mm 3 m/S 730 mmHg 95%
    05:00 -1°C° 0 mm 3 m/S 731 mmHg 95%
    06:00 -1°C° 0 mm 3 m/S 731 mmHg 95%
    07:00 0°C° 0 mm 3 m/S 731 mmHg 94%
    08:00 0°C° 0 mm 3 m/S 731 mmHg 94%
    09:00 +1°C° 0 mm 3 m/S 732 mmHg 89%
    10:00 +2°C° 0 mm 3 m/S 732 mmHg 84%
    11:00 +3°C° 0 mm 3 m/S 732 mmHg 79%
    12:00 +3°C° 0 mm 3 m/S 732 mmHg 78%
    13:00 +4°C° 0 mm 3 m/S 732 mmHg 78%
    14:00 +4°C° 0 mm 3 m/S 733 mmHg 77%
    15:00 +4°C° 0 mm 2 m/S 733 mmHg 82%
    16:00 +3°C° 0 mm 2 m/S 733 mmHg 87%
    17:00 +4°C° 0 mm 1 m/S 733 mmHg 91%
    18:00 +2°C° 0 mm 2 m/S 733 mmHg 92%
    19:00 +2°C° 0 mm 2 m/S 733 mmHg 93%
    20:00 +2°C° 0 mm 2 m/S 733 mmHg 93%
    21:00 +3°C° 0.3 mm 2 m/S 732 mmHg 93%
    22:00 +3°C° 0.3 mm 2 m/S 732 mmHg 93%
    23:00 +2°C° 0.3 mm 3 m/S 731 mmHg 93%

    27 Oktober, Samstag

    Zeit Temperatur Niederschläge Wind Luftdruck Luftfeuchtigkeit
    00:00 +3°C° 1.3 mm 3 m/S 731 mmHg 92%
    01:00 +3°C° 1.3 mm 4 m/S 730 mmHg 92%
    02:00 +4°C° 1.3 mm 4 m/S 730 mmHg 92%
    03:00 +4°C° 0.9 mm 4 m/S 730 mmHg 90%
    04:00 +5°C° 0.9 mm 5 m/S 730 mmHg 88%
    05:00 +6°C° 0.9 mm 5 m/S 729 mmHg 86%
    06:00 +5°C° 0 mm 5 m/S 730 mmHg 86%
    07:00 +5°C° 0 mm 5 m/S 730 mmHg 85%
    08:00 +3°C° 0 mm 5 m/S 731 mmHg 85%
    09:00 +5°C° 0 mm 5 m/S 731 mmHg 81%
    10:00 +5°C° 0 mm 5 m/S 732 mmHg 77%
    11:00 +6°C° 0 mm 5 m/S 732 mmHg 73%
    12:00 +6°C° 0 mm 5 m/S 733 mmHg 72%
    13:00 +6°C° 0 mm 5 m/S 733 mmHg 70%
    14:00 +6°C° 0 mm 5 m/S 733 mmHg 69%
    15:00 +6°C° 0 mm 4 m/S 733 mmHg 72%
    16:00 +5°C° 0 mm 4 m/S 734 mmHg 75%
    17:00 +4°C° 0 mm 4 m/S 734 mmHg 78%
    18:00 +4°C° 0 mm 4 m/S 734 mmHg 79%
    19:00 +4°C° 0 mm 4 m/S 735 mmHg 80%
    20:00 +4°C° 0 mm 4 m/S 735 mmHg 81%
    21:00 +4°C° 0 mm 3 m/S 736 mmHg 84%
    22:00 +4°C° 0 mm 3 m/S 736 mmHg 86%
    23:00 +4°C° 0 mm 2 m/S 736 mmHg 89%

    28 Oktober, Sonntag

    Zeit Temperatur Niederschläge Wind Luftdruck Luftfeuchtigkeit
    00:00 +4°C° 0 mm 2 m/S 736 mmHg 91%
    01:00 +5°C° 0 mm 1 m/S 736 mmHg 92%
    02:00 +5°C° 0 mm 1 m/S 737 mmHg 94%
    03:00 +5°C° 0.1 mm 1 m/S 737 mmHg 93%
    04:00 +5°C° 0.1 mm 1 m/S 737 mmHg 93%
    05:00 +4°C° 0.1 mm 1 m/S 737 mmHg 93%
    06:00 +4°C° 0.1 mm 1 m/S 737 mmHg 93%
    07:00 +3°C° 0.1 mm 2 m/S 738 mmHg 93%
    08:00 +3°C° 0.1 mm 2 m/S 738 mmHg 92%
    09:00 +3°C° 0 mm 2 m/S 738 mmHg 89%
    10:00 +4°C° 0 mm 2 m/S 739 mmHg 86%
    11:00 +3°C° 0 mm 3 m/S 740 mmHg 82%
    12:00 +3°C° 0 mm 3 m/S 740 mmHg 80%
    13:00 +3°C° 0 mm 3 m/S 741 mmHg 77%
    14:00 +3°C° 0 mm 3 m/S 741 mmHg 75%
    15:00 +2°C° 0 mm 3 m/S 741 mmHg 75%
    16:00 +2°C° 0 mm 3 m/S 742 mmHg 75%
    17:00 +1°C° 0 mm 3 m/S 742 mmHg 75%
    18:00 +1°C° 0 mm 3 m/S 743 mmHg 76%
    19:00 0°C° 0 mm 3 m/S 743 mmHg 76%
    20:00 0°C° 0 mm 3 m/S 744 mmHg 76%
    21:00 0°C° 0 mm 3 m/S 744 mmHg 77%
    22:00 -1°C° 0 mm 3 m/S 744 mmHg 78%
    23:00 -1°C° 0 mm 3 m/S 745 mmHg 79%
    Mehr zeigen